Weather History for KDNS - July, 2013

Change the Weather History Date:

Tuesday, July 2, 2013

  Actual Average Record
Temperature  
Mean Temperature 70 °F -  
Max Temperature 82 °F 81 °F 91 °F (2003)
Min Temperature 57 °F 63 °F 53 °F (2014)
Cooling Degree Days 4    
Growing Degree Days 20 (Base 50)    
Moisture  
Dew Point 55 °F    
Average Humidity 64    
Maximum Humidity 94    
Minimum Humidity 32    
Precipitation  
Precipitation 0.00 in - - ()
Sea Level Pressure  
Sea Level Pressure 30.12 in    
Wind  
Wind Speed 3 mph (North)    
Max Wind Speed 14 mph    
Max Gust Speed 21 mph    
Visibility 10 miles    
Events Rain    
Averages and records for this station are not official NWS values.
T = Trace of Precipitation, MM = Missing Value Source: NWS Daily Summary

Daily Weather History Graph

Daily Weather History Graph

Search for Another Location

Airport or City:

Trip Planner

Search our weather history database for the weather conditions in past years. The results will help you decide how hot, cold, wet, or windy it might be!

Date:

Astronomy

Jul. 02, 2013 Rise Set
Actual Time 5:50 AM CDT 9:00 PM CDT
Civil Twilight 5:16 AM CDT 9:34 PM CDT
Nautical Twilight 4:32 AM CDT 10:18 PM CDT
Astronomical Twilight 3:39 AM CDT 11:11 PM CDT
Moon 1:56 AM CDT (7/2) 4:13 PM CDT (7/2)
Length of Visible Light 16h 18m
Length of Day
15h 10m
Waning Crescent, 26% of the Moon is Illuminated
Jul 2
Waning Crescent
Jul 8
New
Jul 15
First Quarter
Jul 22
Full
Jul 29
Last Quarter

Hourly Weather History & Observations

Time (CDT) Temp. Heat Index Dew Point Humidity Pressure Visibility Wind Dir Wind Speed Gust Speed Precip Events Conditions
12:15 AM 62.6 °F - 55.4 °F 77% 30.15 in 10.0 mi Calm Calm - N/A   Partly Cloudy
12:35 AM 60.8 °F - 55.4 °F 82% 30.15 in 10.0 mi Calm Calm - N/A   Partly Cloudy
12:55 AM 60.8 °F - 55.4 °F 82% 30.15 in 10.0 mi Calm Calm - N/A   Partly Cloudy
1:15 AM 60.8 °F - 55.4 °F 82% 30.15 in 10.0 mi Calm Calm - N/A   Scattered Clouds
1:35 AM 59.0 °F - 55.4 °F 88% 30.15 in 10.0 mi Calm Calm - N/A   Scattered Clouds
1:55 AM 60.8 °F - 55.4 °F 82% 30.15 in 10.0 mi Calm Calm - N/A   Scattered Clouds
2:15 AM 59.0 °F - 55.4 °F 88% 30.15 in 10.0 mi Calm Calm - N/A   Scattered Clouds
2:35 AM 59.0 °F - 55.4 °F 88% 30.15 in 9.0 mi Calm Calm - N/A   Scattered Clouds
2:55 AM 57.2 °F - 55.4 °F 94% 30.15 in 10.0 mi Calm Calm - N/A   Scattered Clouds
3:15 AM 57.2 °F - 55.4 °F 94% 30.15 in 10.0 mi Calm Calm - N/A   Scattered Clouds
3:35 AM 57.2 °F - 55.4 °F 94% 30.15 in 10.0 mi Calm Calm - N/A   Mostly Cloudy
3:55 AM 57.2 °F - 55.4 °F 94% 30.15 in 10.0 mi Calm Calm - N/A   Overcast
4:15 AM 57.2 °F - 55.4 °F 94% 30.15 in 10.0 mi Calm Calm - N/A   Overcast
4:35 AM 57.2 °F - 55.4 °F 94% 30.15 in 10.0 mi Calm Calm - N/A   Mostly Cloudy
4:55 AM 57.2 °F - 55.4 °F 94% 30.15 in 10.0 mi Calm Calm - N/A   Mostly Cloudy
5:15 AM 57.2 °F - 55.4 °F 94% 30.15 in 10.0 mi Calm Calm - N/A   Overcast
5:35 AM 57.2 °F - 55.4 °F 94% 30.15 in 10.0 mi Calm Calm - N/A   Overcast
5:55 AM 57.2 °F - 55.4 °F 94% 30.16 in 7.0 mi Calm Calm - N/A   Overcast
6:15 AM 57.2 °F - 55.4 °F 94% 30.16 in 8.0 mi Calm Calm - N/A   Mostly Cloudy
6:35 AM 57.2 °F - 55.4 °F 94% 30.16 in 8.0 mi Calm Calm - N/A   Scattered Clouds
6:55 AM 57.2 °F - 55.4 °F 94% 30.17 in 8.0 mi Calm Calm - N/A   Partly Cloudy
7:15 AM 59.0 °F - 57.2 °F 94% 30.17 in 8.0 mi Calm Calm - N/A   Clear
7:35 AM 60.8 °F - 57.2 °F 88% 30.17 in 9.0 mi Calm Calm - N/A   Partly Cloudy
7:55 AM 62.6 °F - 59.0 °F 88% 30.17 in 9.0 mi Calm Calm - N/A   Partly Cloudy
8:15 AM 64.4 °F - 57.2 °F 77% 30.17 in 9.0 mi Calm Calm - N/A   Clear
8:35 AM 68.0 °F - 57.2 °F 68% 30.16 in 9.0 mi Calm Calm - N/A   Clear
9:15 AM 71.6 °F - 59.0 °F 64% 30.16 in 8.0 mi Variable 4.6 mph - N/A   Partly Cloudy
9:35 AM 73.4 °F - 57.2 °F 57% 30.16 in 9.0 mi Variable 4.6 mph - N/A   Mostly Cloudy
9:55 AM 73.4 °F - 57.2 °F 57% 30.15 in 9.0 mi West 4.6 mph - N/A   Scattered Clouds
10:15 AM 75.2 °F - 57.2 °F 53% 30.15 in 10.0 mi West 6.9 mph - N/A   Clear
10:35 AM 77.0 °F - 55.4 °F 47% 30.15 in 10.0 mi WNW 6.9 mph - N/A   Clear
11:15 AM 78.8 °F - 53.6 °F 42% 30.14 in 10.0 mi NW 8.1 mph - N/A   Clear
11:55 AM 78.8 °F - 53.6 °F 42% 30.14 in 10.0 mi NW 9.2 mph - N/A   Clear
12:15 PM 78.8 °F - 53.6 °F 42% 30.14 in 10.0 mi NW 6.9 mph 12.7 mph N/A   Clear
12:35 PM 78.8 °F - 53.6 °F 42% 30.14 in 10.0 mi NW 8.1 mph - N/A   Clear
12:55 PM 80.6 °F 80.5 °F 55.4 °F 42% 30.13 in 10.0 mi WNW 9.2 mph 18.4 mph N/A   Clear
1:15 PM 80.6 °F 80.3 °F 53.6 °F 39% 30.12 in 10.0 mi North 6.9 mph - N/A   Clear
1:35 PM 80.6 °F 80.3 °F 53.6 °F 39% 30.12 in 10.0 mi Variable 4.6 mph 13.8 mph N/A   Scattered Clouds
1:55 PM 78.8 °F - 53.6 °F 42% 30.11 in 10.0 mi Variable 5.8 mph 11.5 mph N/A   Mostly Cloudy
2:15 PM 78.8 °F - 55.4 °F 44% 30.11 in 10.0 mi NW 6.9 mph - N/A   Scattered Clouds
2:35 PM 82.4 °F - 51.8 °F 35% 30.10 in 10.0 mi Variable 6.9 mph - N/A   Clear
2:55 PM 80.6 °F - 51.8 °F 37% 30.09 in 10.0 mi NNE 11.5 mph - N/A   Scattered Clouds
3:15 PM 82.4 °F - 50.0 °F 32% 30.08 in 10.0 mi NNE 8.1 mph 13.8 mph N/A   Partly Cloudy
3:35 PM 82.4 °F - 51.8 °F 35% 30.08 in 10.0 mi NE 11.5 mph 17.3 mph N/A   Partly Cloudy
3:55 PM 82.4 °F - 50.0 °F 32% 30.08 in 10.0 mi NE 13.8 mph 20.7 mph N/A   Partly Cloudy
4:15 PM 82.4 °F - 51.8 °F 35% 30.08 in 10.0 mi NE 9.2 mph - N/A   Clear
4:35 PM 82.4 °F - 51.8 °F 35% 30.08 in 10.0 mi NE 9.2 mph - N/A   Clear
4:55 PM 82.4 °F - 51.8 °F 35% 30.08 in 10.0 mi NNE 11.5 mph - N/A   Clear
5:35 PM 80.6 °F - 48.2 °F 32% 30.07 in 10.0 mi NNE 11.5 mph - N/A   Clear
5:55 PM 80.6 °F - 48.2 °F 32% 30.06 in 10.0 mi NNE 6.9 mph - N/A   Clear
6:15 PM 78.8 °F - 50.0 °F 36% 30.06 in 10.0 mi North 5.8 mph - N/A   Clear
6:35 PM 80.6 °F - 51.8 °F 37% 30.07 in 10.0 mi North 5.8 mph - N/A   Clear
6:55 PM 80.6 °F - 50.0 °F 34% 30.07 in 10.0 mi North 6.9 mph - N/A   Partly Cloudy
7:15 PM 78.8 °F - 51.8 °F 39% 30.06 in 10.0 mi North 6.9 mph - N/A   Partly Cloudy
7:35 PM 77.0 °F - 53.6 °F 44% 30.06 in 10.0 mi North 5.8 mph - N/A   Clear
7:55 PM 77.0 °F - 55.4 °F 47% 30.06 in 10.0 mi NNW 4.6 mph - N/A   Clear
8:15 PM 77.0 °F - 55.4 °F 47% 30.06 in 10.0 mi Calm Calm - N/A   Clear
8:35 PM 75.2 °F - 55.4 °F 50% 30.06 in 9.0 mi Calm Calm - N/A   Clear
8:55 PM 73.4 °F - 53.6 °F 50% 30.06 in 10.0 mi NE 6.9 mph - N/A   Partly Cloudy
9:15 PM 75.2 °F - 53.6 °F 47% 30.06 in 10.0 mi NNE 5.8 mph - N/A   Mostly Cloudy
9:35 PM 73.4 °F - 55.4 °F 53% 30.08 in 10.0 mi North 11.5 mph - N/A   Overcast
9:55 PM 69.8 °F - 57.2 °F 64% 30.07 in 7.0 mi NE 8.1 mph - N/A Rain Light Rain
10:15 PM 68.0 °F - 59.0 °F 73% 30.07 in 10.0 mi NNE 4.6 mph 11.5 mph N/A   Scattered Clouds
10:35 PM 66.2 °F - 59.0 °F 78% 30.07 in 10.0 mi NNE 5.8 mph - N/A   Clear
10:55 PM 64.4 °F - 59.0 °F 83% 30.07 in 10.0 mi Calm Calm - N/A   Clear
11:15 PM 62.6 °F - 60.8 °F 94% 30.07 in 10.0 mi Calm Calm - N/A   Clear
11:35 PM 62.6 °F - 59.0 °F 88% 30.08 in 10.0 mi Calm Calm - N/A   Clear
11:55 PM 62.6 °F - 59.0 °F 88% 30.08 in 10.0 mi Calm Calm - N/A   Clear